Flag for Estonia Weather past 2 weeks in Tartu, Estonia

Now
19 °F

Light snow. Overcast.


Feels Like: 9 °F
Forecast: 0 / 12 °F
Wind: 8 mph from North

Location: Tartu/Ulenurme

Current Time: Dec 28, 2014 at 10:52:08 PM

Latest Report: Dec 28, 2014 at 9:50 PM


Visibility: N/A

Pressure: 30.09 "Hg

Humidity: 79%

Dew point: 14 °F

Location of TartuLocation

Historic Weather in Tartu — Graph

°F

Tartu temperature yesterday

Maximum temperature yesterday: 28 °F (at 12:50 AM)
Minimum temperature yesterday: 23 °F (at 10:50 PM)
Average temperature yesterday: 26 °F

Past Weeks' High & Low Weather Summary

 TemperatureHumidityPressure
High43 °F (Dec 19, 3:50 PM)93% (Dec 13, 10:50 PM)30.09 "Hg (Dec 13, 10:50 PM)
Low16 °F (Dec 25, 6:50 PM)69% (Dec 27, 3:50 PM)29.00 "Hg (Dec 22, 9:50 PM)
Average31 °F86%29.56 "Hg
* Reported Dec 13 8:50 PM — Dec 28 8:50 PM, Tartu, Weather by CustomWeather, © 2014

Note: Actual official high and low records may vary slightly from our data, if they occured in-between our weather recording intervals... More about our weather records

Advertising

Tartu weather history for previous 24 hours

 ConditionsComfort  
Time TempWeatherWind HumidityBarometerVisibility
8:50 PM
Dec 28
19 °FLight snow. Overcast.10 mph79%30.09 "HgN/A
7:50 PM18 °FLight snow. Mostly cloudy.7 mph86%30.09 "HgN/A
6:50 PM18 °FLight snow. Mostly cloudy.5 mph86%30.07 "HgN/A
5:50 PM19 °FOvercast.6 mph79%30.07 "HgN/A
4:50 PM19 °FSnow flurries. Partly cloudy.8 mph86%30.07 "HgN/A
3:50 PM21 °FSnow flurries. Mostly cloudy.6 mph80%30.04 "HgN/A
2:50 PM21 °FLow clouds.5 mph86%30.04 "HgN/A
1:50 PM21 °FLight snow. Low clouds.3 mph86%30.01 "HgN/A
12:50 PM19 °FLow clouds.3 mph86%30.01 "HgN/A
11:50 AM19 °FIce fog.3 mph86%30.01 "Hg1 mi
10:50 AM19 °FIce fog.5 mph86%30.01 "Hg1 mi
9:50 AM16 °FLow clouds.3 mph93%29.98 "HgN/A
8:50 AM16 °FOvercast.5 mph86%29.98 "HgN/A
7:50 AM19 °FOvercast.5 mph86%29.95 "HgN/A
6:50 AM21 °FMostly cloudy.6 mph86%29.95 "HgN/A
5:50 AM21 °FLight snow. Overcast.7 mph86%29.92 "HgN/A
4:50 AM21 °FLight snow. Low clouds.7 mph86%29.92 "HgN/A
3:50 AM21 °FLight snow. Low clouds.5 mph86%29.92 "HgN/A
2:50 AM21 °FLight snow. Overcast.5 mph86%29.92 "HgN/A
1:50 AM21 °FLight snow. Overcast.6 mph86%29.92 "HgN/A
12:50 AM21 °FLight snow. Mostly cloudy.6 mph86%29.89 "Hg1 mi
11:50 PM
Dec 27
23 °FSnow flurries. Overcast.5 mph86%29.89 "Hg4 mi
10:50 PM23 °FLight snow. Mostly cloudy.9 mph86%29.89 "Hg3 mi
Weather by CustomWeather, © 2014

See weather overviewHow to use our weather pages